Theta_e
321 321 320 320 320 320 319 317 316 317 316 316 317 317 319 320 319 321 321 322 323 324 324 325 324 324 324 324 325 324 323 323 323 323 323 322 322 321 321 321 320 320
321 320 318 319 319 317 319 319 317 317 317 316 317 318 318 317 318 320 321 321 321 322 323 324 325 325 325 325 325 324 324 323 322 322 323 322 322 321 321 321 320 320
321 320 320 319 320 319 318 316 316 316 317 317 316 317 317 316 317 318 320 321 321 321 322 323 325 325 325 325 325 324 323 323 322 323 322 322 322 322 321 319 319 318
320 320 320 320 319 318 316 314 315 315 315 315 316 316 316 316 316 317 318 315 320 320 322 323 324 324 324 325 324 323 324 323 323 322 321 320 320 320 319 319 318 318
319 319 320 319 318 317 314 315 315 315 315 317 314 313 313 314 315 316 316 317 319 320 322 323 323 324 324 324 323 322 321 321 321 322 321 320 320 319 319 319 318 318
316 317 317 318 317 316 315 315 316 315 315 313 314 312 314 314 314 314 314 314 315 318 320 322 322 323 323 323 323 323 322 320 319 320 320 319 319 319 320 318 317 316
314 313 314 316 315 315 315 316 316 313 315 315 309 312 312 312 312 313 313 313 314 314 318 319 320 321 321 321 321 321 321 321 319 318 318 317 315 316 315 316 314 314
312 312 314 313 313 313 314 315 315 314 312 308 311 312 310 312 311 311 311 312 313 314 315 317 319 320 320 320 319 318 317 318 316 313 312 312 311 312 310 309 309 310
310 310 310 309 311 312 311 312 311 305 306 309 309 307 305 309 309 309 310 311 312 312 314 314 316 316 316 316 316 315 314 314 314 312 312 311 310 309 309 307 306 306
306 305 305 306 307 308 308 307 306 306 303 307 307 303 306 303 303 307 307 308 309 309 309 310 311 311 312 312 315 314 313 315 313 312 312 311 310 309 308 307 308 305
300 300 304 304 305 304 304 303 304 304 302 305 303 303 304 301 299 300 303 304 306 307 308 307 309 310 312 311 311 310 311 311 311 310 308 308 309 309 303 305 304 305
298 298 302 304 303 302 303 302 301 301 300 299 301 305 300 300 302 300 302 303 304 305 306 306 306 307 308 309 308 305 303 304 305 305 306 305 304 304 304 304 305 305
296 298 299 300 300 300 298 298 298 298 298 299 297 302 301 300 299 301 299 302 303 304 304 304 305 303 304 304 304 304 304 304 303 302 302 301 302 302 302 301 301 301
295 293 294 295 296 297 298 298 297 296 297 298 296 300 301 301 301 301 298 297 299 300 301 300 302 301 300 300 302 303 302 302 302 302 301 299 298 298 298 298 299 299
291 292 293 294 295 297 297 297 297 297 297 296 296 299 299 299 298 298 296 295 293 295 296 295 298 300 301 300 300 299 300 301 301 300 299 298 297 295 294 295 295 295
291 293 294 294 295 296 297 297 297 296 296 295 296 296 295 294 295 295 298 298 297 293 294 295 298 299 295 296 297 301 300 300 299 297 296 296 294 292 291 291 292 292
292 294 294 294 295 296 295 295 296 295 294 295 294 293 293 292 292 295 295 295 297 297 296 296 298 298 294 296 297 297 298 298 298 297 295 292 292 292 293 290 289 290
293 293 293 294 294 295 294 293 293 293 294 294 293 292 291 290 292 294 294 293 295 294 296 296 296 294 295 296 296 296 295 296 296 296 294 293 290 291 290 289 289 289
293 293 294 294 294 293 292 292 292 293 293 292 293 292 290 291 293 292 293 292 294 294 294 292 292 293 294 295 295 295 295 294 294 294 293 291 290 290 290 289 288 288
293 293 293 293 292 292 292 292 292 293 292 292 291 290 292 292 291 291 292 292 293 294 294 293 293 293 294 294 294 295 295 295 294 293 292 291 290 290 289 289 289 289
294 293 293 292 291 291 291 292 292 292 291 291 291 291 292 292 291 291 291 291 291 291 292 292 293 293 294 294 294 295 295 294 293 292 290 289 289 289 289 289 289 289
293 293 292 292 291 291 291 291 292 292 291 290 290 291 290 290 290 291 291 290 290 290 291 291 290 292 292 293 294 295 295 293 291 290 289 289 288 288 288 289 289 289
293 293 292 292 291 291 291 291 291 291 291 290 290 290 290 290 291 291 291 291 290 290 290 291 290 290 291 292 293 294 294 290 290 290 289 289 289 288 288 288 288 289
293 293 292 291 291 290 291 291 291 290 290 290 291 290 290 291 291 290 290 290 290 290 290 291 291 289 291 292 293 293 292 291 290 290 289 289 288 287 287 287 287 286
292 292 292 291 290 291 291 290 290 290 290 289 290 290 290 290 290 290 289 289 289 290 288 291 291 289 290 292 292 293 291 290 290 290 289 288 288 286 286 286 285 285
291 290 291 290 290 290 289 289 289 289 289 289 290 290 291 290 289 290 290 289 288 288 289 290 290 289 288 291 292 292 292 289 289 290 289 288 287 287 285 285 285 285
Wind_Speed
13 10 11 11 11 10 8 8 8 9 9 8 9 8 9 8 8 9 10 10 11 11 10 10 10 10 9 10 10 9 9 10 9 8 8 9 9 10 12 12 9 8
13 12 10 9 8 7 8 9 8 9 9 9 9 8 7 7 8 10 10 10 10 11 10 9 9 9 9 9 9 9 7 6 7 5 6 8 9 9 8 9 8 7
11 11 11 12 12 11 10 7 8 8 8 9 7 8 7 8 9 9 9 10 10 9 9 9 9 9 9 9 9 9 9 9 9 9 10 10 8 9 10 8 9 10
12 12 12 12 10 9 7 7 7 7 7 7 9 8 8 8 8 9 9 10 9 8 8 9 9 9 9 9 8 8 10 11 9 7 8 9 10 8 8 9 9 8
12 12 10 9 8 8 7 9 10 9 9 10 6 7 7 8 9 9 8 8 8 8 8 9 9 9 8 8 8 7 6 6 7 8 8 7 6 8 10 8 8 9
9 9 9 9 9 9 9 10 10 9 9 7 9 7 8 9 9 9 8 8 7 8 9 8 8 8 8 8 9 10 8 6 5 7 8 8 8 8 8 8 9 9
10 8 10 9 9 9 10 10 9 8 9 8 5 9 8 8 9 8 8 8 8 8 9 8 8 7 7 7 8 8 9 9 7 6 7 8 6 7 6 8 9 9
9 8 9 8 9 9 10 10 9 9 7 5 9 9 8 9 8 7 7 7 8 8 8 8 8 8 8 8 8 7 7 6 6 6 6 6 5 7 6 5 5 6
9 9 8 8 10 9 10 10 8 6 6 9 9 7 6 7 7 7 7 7 8 8 7 7 8 7 6 7 7 7 7 6 5 5 6 6 6 6 6 5 4 4
8 7 8 8 10 9 9 7 6 6 6 8 7 5 7 5 4 5 6 7 7 7 7 7 7 7 7 6 8 8 8 8 6 6 6 6 6 6 6 6 7 5
7 7 9 9 9 7 7 6 7 7 6 7 6 6 5 5 4 4 6 6 7 7 7 7 7 8 8 7 7 6 7 6 6 6 6 6 6 6 6 5 4 4
8 7 10 10 8 7 7 7 7 7 7 5 6 7 5 5 7 6 7 7 7 7 7 7 6 7 7 7 6 5 5 5 5 6 6 6 5 5 5 5 4 4
8 10 8 7 7 7 6 6 7 6 7 7 6 7 7 7 7 7 7 7 7 7 7 7 7 6 6 6 6 6 6 6 6 6 5 5 4 5 4 4 4 4
9 6 6 7 6 6 7 7 6 6 6 6 6 8 8 8 8 7 6 6 6 7 6 6 6 7 6 5 6 6 6 6 6 6 5 5 4 4 4 4 4 5
6 6 5 6 6 7 7 7 7 7 6 7 7 7 7 6 6 6 6 5 4 4 5 5 6 6 6 6 6 5 6 6 6 6 5 5 4 4 4 4 4 5
6 6 7 7 8 9 8 7 7 7 7 7 7 6 6 5 5 5 6 6 5 4 4 5 6 5 7 10 9 7 5 5 4 5 5 5 5 4 4 4 4 1
7 8 7 9 9 7 7 7 8 7 7 7 7 6 6 6 6 6 6 5 6 5 5 6 6 5 9 9 10 9 6 4 5 5 5 4 4 4 6 3 1 2
8 8 9 9 8 9 8 7 7 7 8 8 7 7 6 5 6 6 5 5 6 5 6 6 5 7 9 10 9 9 8 5 5 5 4 4 4 5 4 3 3 2
8 10 9 9 9 7 7 7 8 8 8 9 9 6 5 7 7 6 7 6 7 8 8 6 5 6 8 9 9 9 9 7 4 4 4 5 5 5 5 4 4 4
9 9 9 8 7 7 7 8 9 10 8 6 5 6 8 7 6 8 7 8 8 7 6 6 6 7 9 9 9 9 9 8 5 5 5 5 6 6 5 5 6 6
10 10 9 8 8 8 8 9 10 8 8 8 8 9 9 10 9 8 8 7 7 7 7 7 7 10 11 11 11 10 10 8 5 5 5 5 5 5 6 6 5 5
10 10 9 8 9 9 9 10 10 10 10 8 7 7 6 5 5 7 8 8 7 7 7 7 6 10 11 12 12 11 11 7 6 6 5 5 5 5 5 5 5 5
11 11 11 10 9 10 11 12 12 11 9 7 8 8 8 9 9 8 7 8 8 8 8 7 6 9 12 12 11 12 9 6 6 5 6 6 6 5 4 4 4 4
12 12 12 11 10 13 15 13 9 6 8 9 11 10 10 10 8 7 7 7 9 10 9 8 8 9 13 12 13 13 10 8 7 7 6 5 5 4 4 4 4 6
10 11 11 12 13 15 13 11 12 11 7 7 8 7 8 6 7 7 7 6 7 7 10 10 7 9 13 13 14 14 10 6 6 5 6 5 5 4 3 3 3 4
8 11 11 12 14 12 8 9 5 6 8 9 7 6 6 6 6 7 8 7 6 7 8 9 8 7 9 14 13 13 13 7 5 6 6 6 5 6 5 3 4 4
Wind_Direction
213 210 213 211 219 217 205 197 196 198 201 196 201 202 201 204 192 199 206 210 213 217 217 217 216 219 222 225 225 226 228 227 225 218 217 219 222 222 228 235 241 240
211 210 211 213 219 210 209 200 197 196 201 197 203 199 202 189 197 199 207 211 213 218 217 217 217 216 216 218 221 223 227 226 233 214 227 224 225 222 231 235 235 237
209 208 209 210 212 211 206 194 193 198 199 202 198 200 198 192 200 203 208 210 214 217 216 219 221 220 220 222 219 222 225 228 231 227 228 233 230 230 236 240 239 231
212 210 211 214 213 210 194 188 200 199 196 199 205 198 195 198 198 205 210 211 214 214 215 218 222 223 222 223 225 230 228 228 230 226 225 226 226 225 232 234 233 233
209 212 212 212 210 203 183 196 203 199 201 208 196 193 194 195 203 209 208 210 210 216 217 220 220 222 220 224 228 238 231 228 223 221 225 225 220 222 235 235 236 233
215 212 208 208 204 194 197 205 207 200 206 203 205 187 200 199 206 207 203 206 208 215 220 219 219 221 221 223 225 230 232 230 219 210 221 226 229 229 232 229 230 230
208 199 205 204 202 199 204 210 209 205 207 206 173 205 196 203 206 205 202 205 207 212 217 219 219 221 217 223 227 227 226 229 230 217 227 238 236 242 234 225 221 219
205 202 204 198 200 201 208 211 210 208 200 176 203 208 192 206 205 202 201 203 208 212 215 219 220 220 215 217 226 233 239 224 219 223 235 240 231 240 230 219 213 217
203 204 196 198 202 207 210 211 208 199 182 199 209 205 199 205 201 196 201 202 208 212 211 213 217 219 216 216 223 229 234 237 228 219 226 234 236 235 233 227 228 227
207 201 195 203 207 209 209 207 195 198 194 206 207 194 200 201 193 195 198 202 208 208 207 210 212 215 218 218 222 218 222 228 231 231 229 227 226 227 225 223 226 227
207 195 203 208 212 204 208 194 199 199 195 203 192 198 194 179 193 192 198 200 203 203 205 208 210 208 212 214 216 218 220 226 229 228 227 229 230 232 225 211 216 221
204 200 209 209 204 202 201 195 194 195 193 196 186 192 179 186 190 196 195 199 200 201 201 206 208 209 208 206 206 213 221 223 224 222 221 219 213 208 210 213 221 230
202 207 203 200 199 198 187 187 191 189 184 190 183 184 181 188 194 188 194 191 199 193 197 199 203 203 205 203 201 204 210 213 217 213 207 202 208 210 211 211 208 217
208 199 194 196 189 184 189 190 184 184 189 181 177 186 186 187 185 185 183 187 187 188 194 190 198 197 199 205 206 199 197 208 208 208 209 212 214 213 205 209 209 208
192 191 181 180 182 187 190 190 187 183 180 181 185 187 183 181 175 172 164 177 180 182 185 180 188 197 183 183 195 203 193 203 208 211 206 209 215 214 212 211 213 205
184 178 180 179 187 193 194 185 181 179 178 181 187 183 177 176 173 178 179 183 184 197 200 196 201 200 203 197 193 194 199 206 208 210 202 204 200 207 219 215 205 173
178 183 178 191 195 190 186 183 181 176 179 181 180 175 174 172 173 184 193 188 195 202 210 214 211 202 201 206 209 205 196 199 203 209 206 196 190 205 224 218 191 184
186 178 188 196 188 194 183 179 172 177 185 185 179 182 183 171 186 193 187 193 194 203 216 217 218 206 206 208 204 203 197 195 196 203 193 193 194 207 212 184 182 186
184 186 194 193 196 183 176 173 182 187 191 189 196 185 170 194 202 190 202 197 195 201 211 210 216 205 202 201 197 195 193 185 182 184 181 192 193 197 189 183 175 179
191 193 197 195 180 179 177 184 190 202 196 191 177 179 198 203 195 200 198 201 202 204 212 216 218 213 209 202 200 198 195 186 187 186 187 185 189 186 182 180 185 179
198 197 196 186 182 181 184 194 202 201 195 195 191 197 197 198 193 195 199 195 197 197 203 211 216 207 209 203 200 195 191 184 180 176 175 181 177 178 185 184 184 184
196 197 193 185 183 184 193 204 205 202 200 190 192 201 199 187 200 193 193 193 192 192 197 209 207 196 197 196 193 193 185 175 171 175 176 175 178 187 189 184 174 171
196 194 193 188 185 190 203 208 204 203 201 181 192 199 194 198 198 195 190 187 192 195 195 204 205 195 192 190 191 188 175 170 169 170 174 177 189 185 177 169 169 172
195 191 190 187 187 201 208 210 204 201 200 185 194 193 199 202 186 187 193 194 193 198 194 192 205 194 191 190 190 188 178 176 176 175 184 180 165 157 159 165 166 169
191 192 192 191 198 210 206 200 199 200 187 179 199 195 202 179 183 190 196 200 202 195 192 194 200 196 191 191 190 187 180 174 172 172 173 178 163 159 158 149 157 174
194 195 197 197 207 209 200 205 183 175 187 189 194 194 188 183 188 195 198 203 189 194 198 199 193 194 191 190 188 186 179 169 170 169 181 172 172 165 161 179 182 187